Location: McFarlands Corners
(41.4117°N, 81.3382°W)
Time: 06:18:17
(UTC+00:00)

Tiros 1 - Pass Details

Date: 20 February 2026
Orbit: 618 x 649 km, 48.4° (Epoch: 5 March)

Event Time Altitude Azimuth Distance (km) Brightness Sun altitude
Rises 19:00:05 0° 296° (WNW) 2,894 10.5 34.6°
Reaches altitude 10° 19:02:26 10° 292° (WNW) 1,983 9.8 34.5°
Maximum altitude 19:06:52 53° 216° (SW) 756 9.2 34.1°
Drops below altitude 10° 19:11:16 10° 139° (SE) 1,972 10.0 33.7°
Sets 19:13:36 0° 135° (SE) 2,876 10.7 33.5°
